When you browse on this site, cookies collect data to enhance your experience and personalize the content and advertising you see.
Visit our Privacy Policy to learn more. By continuing to use the site, you agree to this use of cookies and data.
  • In United Kingdom
  • List of Countries
  • For 7 days
  • Water Temperature
  • Weather Map
  • Weather Widgets
  • user-avatar
    Login

    Hourly Weather Reading

    Today, 29 May, Friday

    Time Temperature Precipitation Wind Pressure Humidity
    00:00 +10°C° 0 mm 3 mps 769 mmHg 68%
    01:00 +9°C° 0 mm 3 mps 768 mmHg 71%
    02:00 +9°C° 0 mm 3 mps 768 mmHg 74%
    03:00 +9°C° 0 mm 3 mps 768 mmHg 77%
    04:00 +10°C° 0 mm 3 mps 768 mmHg 78%
    05:00 +11°C° 0 mm 3 mps 768 mmHg 78%
    06:00 +12°C° 0 mm 3 mps 768 mmHg 79%
    07:00 +14°C° 0 mm 3 mps 768 mmHg 72%
    08:00 +17°C° 0 mm 3 mps 767 mmHg 65%
    09:00 +18°C° 0 mm 4 mps 767 mmHg 58%
    10:00 +19°C° 0 mm 4 mps 767 mmHg 54%
    11:00 +20°C° 0 mm 4 mps 767 mmHg 50%
    12:00 +22°C° 0 mm 4 mps 767 mmHg 47%
    13:00 +22°C° 0 mm 4 mps 766 mmHg 47%
    14:00 +22°C° 0 mm 4 mps 766 mmHg 48%
    15:00 +22°C° 0 mm 4 mps 766 mmHg 48%
    16:00 +21°C° 0 mm 4 mps 765 mmHg 52%
    17:00 +20°C° 0 mm 4 mps 765 mmHg 56%
    18:00 +19°C° 0 mm 3 mps 765 mmHg 60%
    19:00 +16°C° 0 mm 3 mps 765 mmHg 59%
    20:00 +13°C° 0 mm 3 mps 765 mmHg 57%
    21:00 +11°C° 0 mm 3 mps 765 mmHg 56%
    22:00 +10°C° 0 mm 3 mps 765 mmHg 60%
    23:00 +9°C° 0 mm 3 mps 765 mmHg 64%

    Tomorrow, 30 May, Saturday

    Time Temperature Precipitation Wind Pressure Humidity
    00:00 +9°C° 0 mm 3 mps 765 mmHg 68%
    01:00 +8°C° 0 mm 2 mps 765 mmHg 75%
    02:00 +8°C° 0 mm 2 mps 765 mmHg 82%
    03:00 +7°C° 0 mm 2 mps 765 mmHg 89%
    04:00 +9°C° 0 mm 3 mps 765 mmHg 88%
    05:00 +10°C° 0 mm 3 mps 764 mmHg 87%
    06:00 +11°C° 0 mm 3 mps 764 mmHg 87%
    07:00 +13°C° 0 mm 3 mps 764 mmHg 80%
    08:00 +16°C° 0 mm 3 mps 764 mmHg 73%
    09:00 +19°C° 0 mm 3 mps 764 mmHg 66%
    10:00 +20°C° 0 mm 4 mps 764 mmHg 61%
    11:00 +21°C° 0 mm 4 mps 764 mmHg 57%
    12:00 +22°C° 0 mm 4 mps 764 mmHg 52%
    13:00 +22°C° 0 mm 4 mps 764 mmHg 52%
    14:00 +22°C° 0 mm 4 mps 763 mmHg 52%
    15:00 +22°C° 0 mm 5 mps 763 mmHg 52%
    16:00 +21°C° 0 mm 4 mps 763 mmHg 56%
    17:00 +20°C° 0 mm 4 mps 763 mmHg 60%
    18:00 +20°C° 0 mm 4 mps 763 mmHg 65%
    19:00 +18°C° 0 mm 4 mps 763 mmHg 68%
    20:00 +15°C° 0 mm 4 mps 763 mmHg 71%
    21:00 +13°C° 0 mm 3 mps 764 mmHg 74%
    22:00 +12°C° 0 mm 3 mps 764 mmHg 77%
    23:00 +11°C° 0 mm 3 mps 764 mmHg 81%

    Day after tomorrow, 31 May, Sunday

    Time Temperature Precipitation Wind Pressure Humidity
    00:00 +11°C° 0 mm 3 mps 764 mmHg 85%
    01:00 +11°C° 0 mm 3 mps 764 mmHg 87%
    02:00 +10°C° 0 mm 3 mps 764 mmHg 89%
    03:00 +10°C° 0 mm 3 mps 764 mmHg 91%
    04:00 +11°C° 0 mm 3 mps 764 mmHg 88%
    05:00 +12°C° 0 mm 4 mps 764 mmHg 85%
    06:00 +13°C° 0 mm 4 mps 764 mmHg 82%
    07:00 +15°C° 0 mm 4 mps 765 mmHg 75%
    08:00 +18°C° 0 mm 4 mps 765 mmHg 69%
    09:00 +19°C° 0 mm 5 mps 765 mmHg 62%
    10:00 +20°C° 0 mm 5 mps 765 mmHg 58%
    11:00 +21°C° 0 mm 4 mps 765 mmHg 55%
    12:00 +22°C° 0 mm 4 mps 765 mmHg 51%
    13:00 +22°C° 0 mm 4 mps 765 mmHg 52%
    14:00 +22°C° 0 mm 4 mps 764 mmHg 53%
    15:00 +22°C° 0 mm 5 mps 764 mmHg 53%
    16:00 +21°C° 0 mm 4 mps 764 mmHg 57%
    17:00 +20°C° 0 mm 4 mps 764 mmHg 60%
    18:00 +20°C° 0 mm 4 mps 764 mmHg 64%
    19:00 +18°C° 0 mm 4 mps 764 mmHg 68%
    20:00 +15°C° 0 mm 4 mps 764 mmHg 72%
    21:00 +13°C° 0 mm 3 mps 765 mmHg 76%
    22:00 +12°C° 0 mm 3 mps 765 mmHg 79%
    23:00 +11°C° 0 mm 3 mps 765 mmHg 82%

    1 June, Monday

    Time Temperature Precipitation Wind Pressure Humidity
    00:00 +10°C° 0 mm 3 mps 765 mmHg 85%
    01:00 +10°C° 0 mm 3 mps 765 mmHg 87%
    02:00 +9°C° 0 mm 3 mps 765 mmHg 88%
    03:00 +9°C° 0 mm 3 mps 764 mmHg 90%
    04:00 +10°C° 0 mm 3 mps 764 mmHg 88%
    05:00 +10°C° 0 mm 3 mps 765 mmHg 86%
    06:00 +11°C° 0 mm 4 mps 765 mmHg 84%
    07:00 +13°C° 0 mm 4 mps 765 mmHg 78%
    08:00 +15°C° 0 mm 4 mps 765 mmHg 73%
    09:00 +19°C° 0 mm 4 mps 765 mmHg 67%
    10:00 +19°C° 0 mm 4 mps 764 mmHg 64%
    11:00 +20°C° 0 mm 4 mps 764 mmHg 61%
    12:00 +21°C° 0 mm 4 mps 764 mmHg 58%
    13:00 +21°C° 0 mm 4 mps 764 mmHg 58%
    14:00 +21°C° 0 mm 3 mps 764 mmHg 58%
    15:00 +21°C° 0 mm 3 mps 764 mmHg 59%
    16:00 +21°C° 0.1 mm 3 mps 763 mmHg 63%
    17:00 +20°C° 0.1 mm 3 mps 763 mmHg 67%
    18:00 +20°C° 0.1 mm 3 mps 763 mmHg 71%
    19:00 +18°C° 0 mm 3 mps 763 mmHg 76%
    20:00 +16°C° 0 mm 3 mps 763 mmHg 81%
    21:00 +14°C° 0 mm 2 mps 763 mmHg 87%
    22:00 +13°C° 0 mm 2 mps 763 mmHg 87%
    23:00 +12°C° 0 mm 1 mps 763 mmHg 88%

    2 June, Tuesday

    Time Temperature Precipitation Wind Pressure Humidity
    00:00 +11°C° 0 mm 1 mps 763 mmHg 89%
    01:00 +11°C° 0 mm 1 mps 762 mmHg 90%
    02:00 +9°C° 0 mm 2 mps 762 mmHg 91%
    03:00 +9°C° 0 mm 2 mps 762 mmHg 93%
    04:00 +9°C° 0 mm 2 mps 761 mmHg 91%
    05:00 +10°C° 0 mm 2 mps 761 mmHg 89%
    06:00 +10°C° 0 mm 3 mps 761 mmHg 87%
    07:00 +12°C° 0 mm 3 mps 761 mmHg 80%
    08:00 +13°C° 0 mm 3 mps 761 mmHg 74%
    09:00 +16°C° 0 mm 3 mps 760 mmHg 67%
    10:00 +17°C° 0 mm 3 mps 760 mmHg 63%
    11:00 +18°C° 0 mm 3 mps 759 mmHg 58%
    12:00 +19°C° 0 mm 3 mps 759 mmHg 54%
    13:00 +20°C° 0 mm 3 mps 758 mmHg 52%
    14:00 +20°C° 0 mm 3 mps 758 mmHg 51%
    15:00 +21°C° 0 mm 3 mps 757 mmHg 50%
    16:00 +20°C° 0 mm 3 mps 757 mmHg 55%
    17:00 +20°C° 0 mm 3 mps 756 mmHg 60%
    18:00 +19°C° 0 mm 3 mps 756 mmHg 65%
    19:00 +17°C° 0 mm 2 mps 755 mmHg 70%
    20:00 +16°C° 0 mm 2 mps 755 mmHg 74%
    21:00 +14°C° 0 mm 2 mps 755 mmHg 78%
    22:00 +13°C° 0 mm 2 mps 755 mmHg 81%
    23:00 +12°C° 0 mm 2 mps 754 mmHg 84%

    3 June, Wednesday

    Time Temperature Precipitation Wind Pressure Humidity
    00:00 +12°C° 0 mm 2 mps 754 mmHg 88%
    01:00 +10°C° 0 mm 2 mps 754 mmHg 89%
    02:00 +10°C° 0 mm 3 mps 753 mmHg 91%
    03:00 +10°C° 0 mm 3 mps 753 mmHg 93%
    04:00 +10°C° 0 mm 4 mps 753 mmHg 92%
    05:00 +10°C° 0 mm 4 mps 753 mmHg 90%
    06:00 +10°C° 0 mm 5 mps 752 mmHg 88%
    07:00 +12°C° 0 mm 5 mps 753 mmHg 82%
    08:00 +14°C° 0 mm 6 mps 753 mmHg 76%
    09:00 +15°C° 0 mm 6 mps 753 mmHg 70%
    10:00 +16°C° 0 mm 6 mps 753 mmHg 67%
    11:00 +16°C° 0 mm 7 mps 752 mmHg 65%
    12:00 +17°C° 0 mm 7 mps 752 mmHg 62%
    13:00 +17°C° 0 mm 7 mps 752 mmHg 62%
    14:00 +17°C° 0 mm 7 mps 752 mmHg 61%
    15:00 +17°C° 0 mm 7 mps 752 mmHg 61%
    16:00 +16°C° 0 mm 7 mps 752 mmHg 63%
    17:00 +15°C° 0 mm 8 mps 752 mmHg 65%
    18:00 +13°C° 0 mm 8 mps 752 mmHg 67%
    19:00 +12°C° 0 mm 7 mps 752 mmHg 71%
    20:00 +11°C° 0 mm 7 mps 752 mmHg 75%
    21:00 +10°C° 0 mm 6 mps 753 mmHg 78%
    22:00 +10°C° 0 mm 6 mps 753 mmHg 77%
    23:00 +10°C° 0 mm 6 mps 753 mmHg 75%
    Show more